Location: Chicoutimi
(48.4330°N, 71.0670°W)
Time: 23:11:58
(UTC-04:00)

ISS - Visible Passes

Search period start: 19 April 2014 00:00
Search period end: 29 April 2014 00:00
Orbit: 414 x 419 km, 51.6° (Epoch: 19 April)

Date Brightness Start Highest point End Pass type
(mag) Time Alt. Az. Time Alt. Az. Time Alt. Az.
19 Apr -3.3 20:40:54 10° WNW 20:44:16 79° SSW 20:46:46 17° ESE visible
19 Apr -0.8 22:18:21 10° W 22:19:40 15° WSW 22:19:40 15° WSW visible
20 Apr -1.8 21:29:30 10° W 21:32:20 25° SW 21:33:10 23° SSW visible
21 Apr -2.3 20:40:49 10° WNW 20:43:59 38° SSW 20:46:40 13° SSE visible
22 Apr -0.6 21:30:30 10° WSW 21:31:40 11° SW 21:32:50 10° SSW visible
23 Apr -1.0 20:40:57 10° W 20:43:18 18° SW 20:45:39 10° S visible
